Wind_Speed
35 37 39 41 40 38 40 46 47 46 50 53 55 58 57 49 43 45 51 56 60 62 64 61 56 52 55 59 59 58 59 60 59 58 57 55 55 57 62 65 65 64 63 62 61 60 58 57 55 54 52 52 51 50 49 48 48 47 46 45 42 41 43 42 40 38 37 38 39 42 42 42 43 44
33 34 35 37 38 39 41 45 47 46 48 51 52 54 56 53 47 44 46 50 53 55 58 59 57 53 52 54 56 57 59 60 59 59 58 56 55 55 58 62 66 66 65 65 64 63 61 59 58 56 54 53 53 52 51 50 49 49 49 49 47 47 46 45 43 42 42 41 41 43 44 43 44 44
33 33 34 36 40 42 42 41 41 43 46 49 51 52 53 53 50 46 44 47 50 51 52 53 54 54 53 53 55 56 58 59 60 60 59 58 57 56 57 59 63 67 68 67 66 65 64 63 60 59 57 56 54 53 53 52 51 51 51 51 50 50 50 49 48 48 47 46 45 46 46 44 44 45
34 35 35 35 39 43 45 43 40 39 40 45 49 52 53 53 50 46 44 45 47 49 49 49 49 50 52 54 56 57 59 59 60 60 60 59 58 57 57 57 60 64 68 69 69 67 67 66 64 62 60 59 57 56 55 54 53 53 53 53 53 52 52 52 51 51 50 49 48 48 48 46 45 46
34 36 37 34 34 37 42 44 43 40 38 40 43 47 51 52 49 46 44 45 46 48 49 48 48 49 49 50 53 56 58 58 58 58 58 58 57 57 56 55 57 61 65 68 70 70 68 68 67 65 63 61 60 59 58 57 55 55 55 55 54 53 53 53 52 52 51 51 50 50 49 49 48 48
34 36 38 36 34 33 35 39 41 40 40 40 41 42 45 48 48 45 44 46 47 48 50 50 49 48 48 48 49 51 53 54 55 55 55 56 56 56 56 54 55 58 61 64 68 70 70 70 69 67 66 64 63 63 61 60 58 58 57 57 56 55 54 53 53 53 53 52 52 51 51 50 50 50
32 35 38 39 36 33 32 33 36 36 37 41 45 46 45 46 47 45 43 44 46 48 49 50 50 49 48 48 47 47 48 49 50 51 52 53 55 55 55 54 54 56 58 60 62 65 68 70 71 70 69 67 66 64 63 62 61 60 60 60 58 56 54 54 54 54 54 53 53 53 52 52 52 51
31 33 36 38 37 36 35 33 34 36 37 38 43 49 51 50 49 48 45 43 44 46 48 50 51 51 50 48 47 47 47 47 47 48 49 50 52 54 54 53 52 54 56 57 57 59 61 65 68 69 69 68 66 65 64 63 63 62 62 61 60 57 55 56 56 55 55 55 54 54 54 54 54 53
33 32 34 35 35 37 38 38 38 38 38 37 37 41 49 53 53 51 49 46 43 43 46 49 51 51 52 51 51 50 49 49 48 48 48 48 49 51 52 53 53 53 53 54 54 54 56 58 61 65 66 66 66 65 65 65 65 65 64 62 61 58 57 57 57 56 56 56 55 55 56 56 56 55
36 35 35 35 36 37 39 41 42 42 40 38 36 35 39 46 52 52 51 50 48 46 45 47 49 50 51 51 52 52 51 52 52 51 50 49 49 49 49 50 52 53 54 53 53 53 54 55 57 60 62 64 65 66 66 66 66 66 65 63 62 60 59 59 58 57 57 57 56 57 57 57 57 56
37 36 35 35 36 37 38 40 43 44 43 41 39 37 36 39 45 51 51 50 50 50 50 49 50 51 50 50 50 50 50 51 52 53 53 53 53 51 50 49 50 51 54 55 55 55 55 55 56 57 58 60 61 63 64 65 65 64 64 63 62 61 60 60 59 59 58 58 58 58 57 57 56 56
37 36 35 34 34 35 37 39 40 41 42 42 40 38 36 36 40 46 51 51 49 49 50 51 51 52 51 51 50 50 50 51 51 51 52 53 55 54 52 51 49 49 51 53 55 56 56 57 57 58 58 59 60 60 61 62 62 62 62 62 62 61 60 60 59 59 58 58 58 58 58 57 56 55
35 35 35 34 33 33 35 38 38 38 38 39 39 37 35 36 38 41 46 50 50 49 50 51 52 52 52 52 51 51 51 52 51 50 48 50 52 53 52 51 50 49 49 51 53 55 56 57 58 59 59 59 60 61 61 61 61 61 61 61 61 61 61 61 60 59 59 58 57 57 57 57 56 55
26 27 29 30 30 30 32 36 38 38 38 38 38 37 36 37 38 38 41 45 49 50 51 51 52 53 53 52 51 51 50 49 49 49 47 47 49 51 53 53 52 51 51 51 51 53 54 56 57 58 59 59 60 61 62 62 62 61 61 61 61 61 61 61 61 60 60 59 58 57 57 56 55 55
19 20 21 23 25 27 29 32 35 37 38 38 37 38 38 38 39 40 40 42 45 47 49 49 50 51 53 53 52 51 50 49 50 50 49 47 46 48 51 53 54 53 52 51 51 52 52 54 55 57 59 60 60 61 62 63 64 63 63 62 62 63 63 63 62 62 61 60 59 58 57 56 55 55
19 19 19 20 22 24 26 28 31 33 34 36 36 36 37 39 40 41 41 42 42 44 46 46 47 48 49 49 49 49 49 49 50 50 51 51 49 48 48 50 52 53 52 51 51 51 52 52 53 55 57 59 60 60 60 61 63 64 64 64 64 64 64 64 63 63 62 62 61 60 59 58 58 57
20 20 21 21 21 22 24 25 27 29 31 32 34 35 36 37 38 40 42 42 41 42 43 45 45 46 45 45 44 43 42 43 44 46 49 50 51 51 50 50 50 50 51 51 51 51 51 51 52 53 54 56 58 58 58 59 61 62 63 64 64 64 64 64 63 63 63 63 63 62 61 61 61 61
22 22 23 24 24 24 25 26 28 29 30 31 32 33 35 35 36 37 39 40 40 41 41 42 42 42 41 42 41 38 36 36 38 40 42 44 46 47 48 48 48 48 49 49 50 51 51 51 51 52 53 54 55 56 57 57 58 59 61 62 63 63 64 64 63 63 63 63 63 62 62 62 62 62
24 25 25 26 26 26 27 28 29 30 30 31 32 33 34 34 33 34 35 36 37 38 39 39 39 38 37 37 37 36 34 34 34 35 36 37 39 40 42 43 45 47 48 48 48 49 50 50 51 51 51 52 54 55 55 55 55 56 57 59 60 61 62 63 64 64 64 63 62 62 62 62 63 63
23 24 25 25 25 26 27 28 29 30 31 32 33 33 33 33 32 32 31 31 32 33 35 36 37 37 36 36 36 36 35 34 34 33 34 36 37 39 41 44 45 46 47 46 45 45 46 47 48 50 51 52 53 54 54 54 54 55 56 57 58 58 59 60 62 63 64 64 63 63 63 63 64 64
19 20 21 22 23 23 24 25 27 29 30 32 32 32 32 32 31 30 29 28 28 29 31 32 33 33 35 36 36 36 35 34 34 33 34 34 35 38 41 43 44 44 44 44 43 43 43 44 45 47 49 50 52 53 53 53 54 54 55 56 58 58 59 59 59 60 61 63 64 64 64 65 65 65
18 19 21 21 22 23 23 23 24 26 28 30 32 32 32 32 32 30 28 27 26 26 27 28 29 30 32 33 35 36 36 35 35 34 33 31 32 33 36 38 40 41 42 42 42 43 44 43 44 45 46 48 49 51 52 52 53 53 53 54 55 57 58 59 59 59 60 60 62 63 64 64 64 65
20 21 23 24 25 26 26 26 27 27 28 30 31 31 32 33 32 30 28 27 25 25 26 27 27 28 29 31 32 34 35 36 36 35 34 33 32 32 33 34 37 39 40 40 41 43 43 43 43 44 44 45 46 47 49 50 51 52 52 52 52 53 55 57 58 60 60 61 61 62 62 63 63 64
21 23 24 26 27 28 29 30 31 32 32 32 32 32 33 34 32 30 29 27 25 25 25 25 25 25 25 27 30 31 33 35 36 36 36 35 33 32 32 33 35 37 37 37 38 40 42 42 43 44 44 45 45 45 46 48 49 51 52 52 52 51 51 52 54 56 58 59 60 61 62 63 63 64
21 22 23 25 26 28 29 30 31 32 33 33 34 34 34 32 30 29 29 28 26 25 25 24 24 24 24 26 28 29 31 33 34 34 34 34 32 31 31 32 32 33 34 35 37 39 40 41 42 43 44 45 46 46 46 47 48 49 50 52 53 53 52 52 52 52 53 55 56 57 58 59 61 62
17 19 21 23 25 28 29 30 30 30 29 29 31 34 33 31 30 29 28 27 27 27 26 26 25 25 25 26 26 27 28 29 30 30 31 30 30 30 30 30 30 30 30 31 34 36 37 38 40 41 42 43 44 45 46 47 48 49 49 50 51 52 53 54 54 54 54 54 54 55 55 56 57 58
13 15 17 19 20 23 27 28 29 29 27 25 26 29 29 30 30 30 27 26 26 27 27 27 27 26 26 27 27 27 26 26 26 26 26 27 28 28 29 30 30 30 29 30 31 33 34 36 37 39 40 41 42 43 44 46 47 48 49 50 50 51 51 52 53 54 54 55 55 55 55 55 56 56
12 14 15 15 14 16 19 20 22 26 26 24 23 25 27 29 30 30 27 25 25 26 28 28 28 28 28 28 27 25 24 24 24 25 26 27 27 28 29 29 29 29 29 30 31 32 33 35 36 37 38 39 41 41 42 43 45 46 48 50 50 51 50 50 51 51 52 52 53 53 54 54 55 55
13 14 14 13 11 11 12 11 14 19 22 22 21 24 28 29 29 29 27 25 25 26 28 29 30 29 28 27 26 25 25 25 25 26 26 27 27 27 28 27 27 27 26 27 29 31 33 34 35 37 38 39 39 40 41 41 42 43 45 47 49 50 50 51 51 51 51 51 51 51 52 52 52 53
14 14 13 11 9 7 7 6 7 12 17 18 18 23 29 29 28 28 27 24 24 25 27 28 28 27 26 26 26 26 26 26 26 26 27 27 27 27 27 26 26 26 25 26 27 29 30 32 34 36 38 39 40 40 40 40 41 42 43 45 46 47 49 49 50 51 52 52 52 52 52 52 52 52
14 15 13 10 8 6 4 5 6 9 13 14 17 23 28 28 27 26 24 22 22 23 24 24 24 23 23 24 24 23 23 24 25 26 27 27 28 28 28 28 28 28 28 28 28 29 31 32 33 35 37 39 41 40 40 40 41 42 42 43 44 45 46 47 48 49 50 51 51 52 52 53 53 53
13 14 12 10 7 5 1 5 7 8 10 13 17 24 26 25 24 23 22 20 20 21 21 21 21 21 22 22 22 21 22 23 23 24 25 25 26 27 28 28 29 30 30 30 31 31 32 32 32 33 34 36 38 39 39 39 40 41 41 42 43 44 45 45 47 48 49 49 50 51 51 52 52 52
10 12 13 10 7 5 1 4 6 7 9 14 20 24 24 22 20 20 19 20 20 20 20 20 20 20 21 21 22 23 24 24 24 24 24 24 25 26 27 29 30 31 32 32 33 33 33 33 33 32 31 32 33 35 37 38 39 39 40 40 41 42 42 43 44 46 46 47 48 48 49 49 49 50
8 9 11 10 7 5 3 3 5 7 11 17 22 23 22 20 20 19 20 21 20 20 19 19 20 21 22 23 24 25 25 25 25 25 25 26 26 28 30 31 32 33 33 34 35 35 35 36 35 34 32 32 32 33 34 36 36 37 38 39 40 40 41 42 43 44 45 45 46 46 46 46 46 47
6 5 7 9 7 5 5 5 5 9 15 20 22 21 21 21 20 20 20 20 20 20 20 21 21 22 23 23 24 24 24 25 26 26 27 28 29 31 32 33 34 34 35 36 36 37 38 38 38 37 36 36 35 35 34 35 35 36 37 38 39 39 40 42 43 44 44 44 45 45 45 45 46 46
5 4 3 6 6 5 6 7 8 11 17 21 22 22 23 23 21 20 20 21 21 22 22 23 23 24 24 25 25 25 26 27 28 28 30 31 32 33 34 35 36 36 37 38 39 39 40 40 40 40 40 39 39 38 36 35 36 37 37 38 38 39 40 41 42 43 43 44 44 45 45 45 44 44
4 3 2 1 3 4 4 7 10 13 16 19 22 23 24 24 23 22 22 23 23 24 24 25 26 26 27 27 27 27 28 29 30 31 32 33 35 35 36 36 37 38 39 40 40 41 41 42 42 42 41 41 41 39 36 35 36 37 37 37 38 38 39 40 41 42 42 42 43 43 43 43 42 41
3 2 3 3 2 2 3 5 9 13 16 18 21 23 24 24 24 24 24 25 25 26 26 27 27 28 28 28 29 29 30 31 32 32 33 33 34 34 35 35 35 36 37 38 39 40 41 41 41 41 41 41 39 37 34 34 35 36 36 37 37 38 39 40 39 39 39 39 40 40 40 40 39 38
5 2 1 3 5 5 5 5 8 11 15 17 20 21 23 24 24 25 26 27 27 28 27 28 28 29 29 30 30 30 31 30 30 30 30 31 31 31 32 32 33 34 35 36 37 38 38 38 38 37 36 36 35 33 32 33 34 35 36 37 36 36 36 36 36 36 37 37 38 38 38 38 37 37
7 4 1 1 3 6 8 9 10 11 14 16 18 20 21 23 24 25 26 27 27 27 27 28 28 29 29 29 29 29 28 28 28 28 28 28 28 28 29 30 31 32 33 34 34 34 34 33 32 32 32 33 33 33 33 34 34 34 34 34 33 33 33 34 35 35 35 35 36 36 36 36 36 37
8 6 3 1 1 3 6 9 11 12 13 14 16 17 19 20 21 23 24 24 25 26 26 27 27 27 26 26 25 25 25 25 25 25 25 24 25 26 27 28 29 30 30 31 31 30 29 29 29 30 32 33 33 33 33 32 31 30 30 30 30 31 32 33 34 34 34 34 34 35 35 35 37 38
9 8 6 3 1 1 3 5 8 10 11 13 14 15 16 18 19 20 21 21 22 22 22 22 21 21 21 20 20 20 20 21 21 21 22 22 22 23 24 25 26 27 27 27 27 26 26 27 29 30 31 32 31 31 30 28 27 27 28 29 30 31 32 32 33 33 34 34 35 35 35 36 39 40
10 8 6 4 2 0 1 3 5 7 8 10 11 12 13 14 14 15 15 15 15 15 15 15 15 15 16 16 16 16 16 17 18 18 19 19 20 21 22 23 23 24 24 24 24 25 26 27 28 29 29 29 29 29 28 26 26 27 28 29 31 32 32 33 34 35 35 35 36 36 37 39 41 42
10 9 7 4 3 1 1 2 3 4 5 6 7 8 8 9 9 10 10 10 11 11 11 12 12 12 12 13 13 13 14 15 16 16 17 18 18 19 20 21 22 22 23 23 23 24 25 26 27 28 29 29 28 28 27 27 27 28 29 31 32 32 33 34 35 36 37 37 38 38 39 41 43 44
11 9 6 4 3 3 2 2 3 3 3 4 4 5 5 6 6 6 7 8 8 9 9 9 10 10 10 11 12 12 13 14 15 15 16 17 17 18 19 20 20 21 22 23 23 24 25 26 28 28 29 29 29 28 28 28 29 30 31 32 33 33 34 35 37 38 40 40 39 40 42 44 46 47
Wind_Direction
235 235 231 231 232 231 231 229 231 236 235 231 229 230 232 234 232 229 229 231 232 233 231 230 229 228 224 222 221 223 226 228 229 230 231 232 234 234 233 233 234 234 233 231 229 228 227 228 229 229 231 232 231 232 233 234 234 235 233 229 226 228 234 239 241 242 242 242 242 242 241 240 241 243
231 231 230 230 228 227 229 229 228 231 234 232 229 229 231 233 233 231 229 229 230 232 232 229 226 225 225 224 223 223 226 228 230 231 233 234 235 236 236 234 233 234 234 233 231 230 229 229 230 231 232 233 233 232 233 234 235 236 237 235 233 232 233 235 236 237 240 243 245 247 246 244 243 242
229 228 229 228 227 227 230 229 227 226 228 231 231 230 230 231 233 233 232 230 228 229 231 230 226 223 222 223 224 225 227 229 231 233 234 236 237 237 238 238 236 234 234 234 233 232 231 230 230 231 233 234 235 234 234 234 235 236 237 237 237 237 237 237 237 237 238 240 243 247 249 248 247 247
228 228 229 229 228 229 232 232 231 228 224 227 230 231 231 231 232 234 234 232 229 228 229 230 229 226 223 223 224 226 228 230 232 234 235 236 237 238 239 239 238 236 235 235 234 233 233 232 232 231 232 234 235 236 236 235 235 235 236 237 238 239 240 240 241 240 240 240 242 244 247 248 248 249
230 228 228 228 227 229 233 234 235 235 232 228 227 228 230 231 232 234 235 234 232 230 229 229 229 229 228 227 226 227 229 231 233 235 236 236 237 238 239 239 238 237 236 235 235 235 234 234 233 233 232 233 235 236 237 237 237 237 236 237 237 239 240 242 243 243 242 241 242 242 244 245 246 248
232 231 229 228 227 228 232 233 235 240 241 239 234 230 229 229 229 231 232 233 235 234 232 230 230 230 231 230 229 229 230 232 233 235 237 237 236 236 237 237 237 237 237 236 236 235 235 235 235 235 234 233 234 235 236 237 238 238 237 237 237 237 239 241 243 244 244 243 242 242 242 242 244 245
229 231 232 232 231 230 231 230 230 234 239 242 241 237 233 229 227 227 228 229 232 235 236 234 233 233 233 233 233 232 232 232 233 234 236 236 235 233 233 233 235 236 238 238 236 235 235 235 236 236 235 234 233 234 235 237 238 238 238 238 237 236 237 239 241 242 243 243 242 241 241 241 241 243
229 229 232 236 237 236 235 230 226 227 231 236 239 237 235 232 228 226 226 225 226 230 234 236 236 235 235 235 235 235 234 234 235 235 236 236 235 234 232 230 231 233 235 236 236 236 236 236 236 236 235 233 232 232 232 235 238 238 238 238 238 236 235 237 238 240 241 241 241 241 241 241 241 241
233 232 233 237 239 239 238 233 227 226 229 234 238 237 234 232 229 228 227 226 225 225 229 234 237 237 236 237 238 238 238 238 238 238 238 238 237 237 236 233 230 229 230 232 233 234 236 237 237 236 235 233 232 231 231 233 236 237 237 237 237 236 235 236 236 237 238 239 240 241 240 240 240 240
235 236 237 238 239 240 240 237 231 229 230 234 240 243 238 232 229 229 229 229 229 230 231 233 236 237 238 238 240 241 241 241 241 241 242 241 240 240 240 239 236 233 231 231 232 233 234 236 237 237 236 234 233 232 231 231 233 234 235 235 235 235 235 235 236 236 236 237 238 239 240 240 240 240
237 238 239 240 241 242 241 238 234 233 234 237 241 245 244 238 232 231 231 231 231 232 233 235 236 238 239 240 240 241 242 242 241 241 242 243 244 244 244 243 241 239 236 234 233 233 234 235 236 237 237 237 236 235 233 232 231 232 233 234 235 235 234 235 236 236 236 236 236 238 239 241 241 241
241 241 241 241 243 243 241 237 235 236 237 238 241 242 242 241 237 234 234 234 234 233 233 235 237 239 240 240 240 241 242 243 243 243 243 243 244 245 244 244 243 241 239 236 234 233 233 234 234 235 236 237 238 237 236 235 233 232 232 233 235 235 235 235 236 237 237 237 238 238 239 239 241 242
241 242 241 241 243 243 239 235 234 236 237 237 238 239 239 240 240 238 236 237 237 237 238 238 238 239 240 240 241 241 242 244 246 247 245 242 242 243 243 243 242 242 241 239 236 233 232 232 233 234 235 236 237 237 237 237 237 235 233 233 234 235 236 236 236 237 237 238 238 239 240 240 240 242
240 241 240 239 241 240 238 235 234 236 238 239 239 240 241 241 241 240 239 238 238 239 240 242 242 242 243 243 243 243 243 244 245 246 245 242 240 241 242 243 243 243 243 242 241 238 234 232 231 232 233 234 235 236 237 238 239 238 235 233 233 234 236 237 237 237 237 238 238 239 241 242 243 243
238 241 241 240 239 238 237 236 236 238 240 241 242 243 244 244 243 243 242 241 240 239 240 241 243 244 245 246 247 247 246 246 245 246 246 244 241 239 240 242 243 243 243 243 242 241 238 234 232 232 232 233 234 235 236 237 238 238 237 235 233 233 234 235 236 237 237 238 239 240 242 243 244 246
232 234 235 235 234 233 234 235 236 238 239 241 242 244 245 245 244 243 243 243 243 242 241 240 241 243 244 246 247 248 248 247 247 246 246 245 244 243 241 241 241 241 241 241 240 239 238 236 234 233 233 233 234 234 234 235 236 237 238 237 236 235 235 235 236 236 237 238 239 240 241 242 243 244
233 233 232 232 230 229 230 231 232 234 236 237 239 241 243 243 243 242 242 243 244 244 244 243 241 241 242 244 245 246 247 247 246 246 246 246 246 245 243 242 241 240 239 238 238 238 237 236 235 235 234 234 235 235 235 235 234 235 236 237 237 237 237 237 237 237 237 238 239 240 241 241 243 243
236 234 233 233 232 230 230 229 230 231 233 235 236 238 240 242 242 242 242 242 244 245 246 246 245 243 242 243 243 243 244 246 246 247 247 247 246 245 244 241 239 239 238 237 238 237 237 237 236 235 235 236 236 237 237 236 236 236 236 236 237 237 238 238 238 238 238 238 239 240 241 241 242 243
237 236 236 235 235 234 233 232 232 232 233 234 236 238 240 241 242 243 243 243 244 245 246 246 246 245 244 242 241 240 241 243 245 246 245 244 243 242 241 240 238 237 237 237 238 239 238 238 237 236 236 236 237 237 238 237 237 237 237 237 237 238 238 238 238 239 239 240 239 240 240 241 242 243
241 243 245 246 245 243 242 240 239 238 237 237 237 238 240 240 241 241 242 243 243 243 244 244 244 244 243 242 241 240 240 240 241 242 242 242 240 239 239 239 239 238 237 236 238 239 239 239 239 238 237 237 238 238 238 239 239 238 238 239 239 239 239 239 239 238 238 239 240 240 240 241 242 243
253 254 255 254 252 251 248 246 246 245 245 243 241 239 238 238 239 239 238 239 239 238 239 240 241 241 240 239 239 238 239 238 238 238 239 241 242 242 241 241 241 240 239 237 237 238 239 239 239 240 239 238 238 239 239 240 240 240 240 240 240 240 241 241 241 240 239 238 238 239 240 241 242 243
263 262 261 260 258 256 254 251 249 247 247 247 246 243 240 238 239 239 237 236 235 236 236 237 237 237 236 235 235 236 237 238 238 238 241 244 245 245 245 245 244 243 241 239 239 239 239 239 239 240 241 240 239 239 240 241 241 242 242 241 241 241 241 241 241 241 241 240 239 239 239 239 241 242
263 262 263 263 263 262 261 258 255 251 248 248 247 246 244 242 242 240 238 236 234 234 236 236 236 235 233 232 232 233 235 237 238 240 243 246 247 247 247 246 245 244 243 242 242 242 241 240 241 241 243 243 242 241 241 242 242 242 242 242 242 242 242 242 242 242 242 242 242 241 241 240 241 242
267 266 265 264 263 262 260 257 255 253 250 248 247 245 243 244 244 242 239 237 234 232 234 236 236 236 233 231 231 231 233 235 237 240 244 247 248 249 249 248 246 244 244 243 243 243 242 242 241 242 243 244 244 243 242 242 242 242 243 243 243 243 242 242 243 243 243 243 243 244 244 244 244 244
273 271 268 266 262 260 257 254 252 249 247 245 245 243 240 241 242 241 239 236 233 230 230 231 231 231 230 230 230 230 232 234 236 239 243 246 247 247 248 248 247 245 243 243 243 243 242 242 242 242 242 243 243 243 243 242 243 243 243 243 243 244 244 244 244 243 243 244 244 244 245 245 245 246
271 269 267 265 261 257 254 250 247 245 242 238 238 238 236 233 234 236 236 234 231 228 227 227 227 227 227 228 229 230 230 231 233 235 238 241 243 245 246 248 249 248 247 247 247 246 245 244 244 243 243 243 244 244 244 243 243 244 244 244 245 245 245 246 246 246 245 245 245 246 246 246 246 246
281 281 279 275 268 261 256 250 245 241 237 232 231 231 228 226 227 230 231 231 228 227 226 225 225 226 227 228 229 230 231 231 231 233 236 239 241 244 247 248 249 250 250 250 250 250 249 247 246 246 245 245 245 245 245 245 245 244 245 245 246 247 247 247 247 247 247 248 248 248 248 247 248 248
317 311 302 293 280 266 260 253 243 235 230 227 225 221 217 217 221 225 226 224 223 223 224 225 225 226 227 228 230 233 235 235 236 237 238 240 242 244 246 247 248 249 250 250 250 251 250 250 250 249 249 248 247 247 246 246 245 244 244 245 245 246 247 248 248 248 248 249 249 249 249 249 249 250
340 327 313 306 296 275 262 254 240 227 221 220 219 211 205 206 213 220 222 219 218 220 221 223 226 226 227 228 230 232 234 236 237 239 240 241 241 242 243 245 245 247 248 249 250 251 251 252 252 251 251 250 250 250 249 248 247 246 245 245 245 245 246 246 247 248 248 249 249 250 250 250 250 250
353 340 326 323 324 301 269 245 221 208 205 210 210 202 198 199 205 214 219 218 217 219 221 223 227 229 228 229 229 231 234 237 239 239 239 238 239 239 240 242 242 243 245 248 250 252 254 255 255 254 253 252 250 250 249 249 248 247 247 246 246 246 246 247 247 248 248 249 249 250 250 251 251 252
359 350 337 334 342 331 275 217 193 190 196 202 199 193 194 199 205 211 217 218 219 222 224 227 229 229 229 230 231 233 236 238 239 239 237 235 236 238 240 242 243 243 244 246 249 252 255 257 259 259 258 255 252 250 249 248 248 248 248 248 248 248 248 247 247 248 248 249 249 250 251 251 251 252
358 357 349 346 356 1 297 202 191 192 196 195 186 183 189 197 205 210 215 217 217 219 222 224 225 227 228 231 233 235 236 237 238 239 239 239 240 241 243 246 247 248 249 250 253 255 257 259 261 263 263 261 257 254 252 250 249 249 248 248 248 249 249 248 248 248 248 249 249 250 251 251 252 253
351 1 1 359 10 26 51 187 190 190 185 177 174 177 185 195 202 208 213 214 212 212 215 217 222 226 229 232 234 235 237 238 239 241 243 244 245 247 249 251 253 255 256 257 257 259 259 259 260 263 264 264 261 258 255 252 251 250 250 250 250 250 251 251 250 250 250 250 251 251 252 252 253 253
339 359 8 10 21 48 85 155 181 180 171 169 170 174 183 193 199 205 209 211 210 211 215 219 223 228 231 234 236 237 239 241 244 246 247 248 249 250 251 252 254 254 254 255 255 256 257 258 260 262 265 265 264 261 257 254 253 252 251 251 252 252 253 253 253 253 253 253 253 253 254 254 254 254
314 341 10 17 25 59 99 128 159 167 165 166 171 179 186 192 198 204 210 213 215 217 221 225 229 233 237 239 241 243 245 247 248 250 252 252 252 251 251 251 252 252 252 252 253 254 255 257 260 262 264 265 265 262 258 255 254 253 253 253 253 253 253 253 253 253 254 254 254 254 254 254 254 254
291 296 2 27 31 57 106 125 139 157 166 172 179 187 193 196 200 205 211 214 216 220 226 232 236 239 241 243 245 247 248 250 253 254 255 255 255 254 253 253 253 252 252 251 251 252 254 255 257 259 261 263 264 262 259 257 255 254 254 253 253 253 253 253 254 254 255 255 255 254 253 253 253 253
303 275 259 50 45 56 110 140 150 160 173 183 190 198 203 207 210 213 216 219 222 227 232 237 240 243 245 247 249 251 254 256 258 258 257 257 256 256 255 254 254 253 252 251 251 251 253 254 256 258 260 262 263 262 260 257 255 254 254 253 253 253 253 253 254 254 254 254 254 253 252 252 251 252
344 296 251 228 194 130 132 168 180 183 188 194 200 206 212 217 221 224 225 227 230 234 239 242 245 247 249 252 255 258 260 261 260 259 258 257 256 256 256 255 254 253 252 252 252 252 254 255 257 259 260 261 261 260 258 257 254 253 252 251 250 251 251 252 252 252 252 252 251 251 251 251 250 250
9 353 270 235 222 210 198 195 202 206 207 210 213 216 221 225 229 232 234 236 239 243 247 251 253 255 256 258 261 262 263 263 262 260 259 257 256 256 255 254 253 252 252 252 252 253 255 256 258 259 260 259 258 256 254 252 251 249 249 249 248 249 249 250 250 249 249 249 249 249 249 250 249 249
16 12 15 180 215 225 219 212 213 217 220 223 226 228 232 235 238 241 243 246 248 251 254 256 258 259 260 261 262 262 262 262 261 260 257 255 253 252 251 251 251 251 252 253 253 255 257 258 259 258 256 254 252 250 248 248 248 249 249 249 248 247 247 247 247 247 247 248 249 249 250 250 251 251
20 15 11 32 192 225 225 223 223 223 225 228 232 234 237 240 242 244 246 248 250 252 255 256 258 258 258 258 258 259 260 260 258 256 253 250 250 250 249 249 250 251 252 254 256 257 258 258 256 254 251 250 250 249 248 248 248 249 249 248 246 245 245 246 247 248 249 249 250 252 253 253 254 254
17 15 10 4 353 236 224 225 224 223 225 227 230 233 236 239 241 243 245 246 248 250 251 253 253 254 254 254 254 255 256 256 254 252 250 248 248 248 249 249 250 251 253 255 255 255 254 252 250 250 250 250 250 250 250 249 248 246 246 246 246 246 246 247 248 249 250 251 252 253 254 255 256 255
2 3 2 360 357 329 225 220 217 218 220 221 222 226 230 232 235 238 240 242 243 244 246 247 249 250 251 251 250 251 253 253 252 250 249 248 248 248 248 249 250 251 252 252 251 250 249 249 249 250 251 251 252 252 252 250 247 245 245 245 246 248 249 249 250 250 251 253 254 255 257 258 258 259
344 345 343 339 334 318 265 222 214 216 217 216 219 222 225 228 232 235 237 240 242 244 246 248 249 250 251 252 252 252 252 252 251 251 250 250 250 249 249 250 250 251 251 251 250 250 250 250 251 252 253 254 255 255 254 251 249 247 245 244 246 248 250 252 254 255 256 257 258 259 260 261 262 263
328 327 323 312 293 276 264 250 244 245 241 239 242 243 242 245 246 246 249 252 253 255 257 258 259 260 260 260 260 259 258 258 258 257 256 255 254 253 252 252 253 253 253 253 253 253 253 253 254 256 257 258 258 258 256 254 251 249 247 246 246 247 250 253 256 258 259 260 262 265 266 266 267 267
Height
2859 2862 2865 2868 2872 2876 2880 2882 2885 2887 2890 2895 2900 2903 2907 2910 2911 2913 2916 2920 2926 2931 2934 2939 2943 2947 2950 2953 2956 2959 2963 2967 2971 2974 2978 2982 2986 2989 2992 2995 2999 3003 3007 3010 3014 3017 3020 3023 3026 3029 3031 3033 3036 3039 3041 3044 3047 3049 3052 3054 3057 3060 3061 3062 3064 3066 3067 3069 3070 3072 3073 3075 3077 3079
2855 2858 2861 2864 2867 2871 2874 2876 2879 2882 2885 2889 2894 2897 2901 2904 2906 2908 2911 2915 2921 2924 2928 2932 2936 2940 2944 2947 2949 2952 2956 2960 2964 2967 2971 2975 2979 2982 2985 2988 2992 2996 2999 3003 3007 3010 3014 3017 3020 3023 3025 3027 3030 3033 3035 3038 3041 3043 3046 3048 3051 3053 3055 3057 3059 3062 3063 3065 3066 3067 3069 3071 3072 3074
2851 2854 2857 2859 2863 2866 2868 2871 2874 2877 2880 2883 2887 2891 2895 2898 2901 2904 2907 2910 2915 2918 2922 2926 2929 2933 2937 2940 2943 2946 2950 2953 2957 2961 2965 2968 2972 2974 2978 2981 2985 2988 2992 2995 2999 3003 3007 3010 3013 3017 3019 3022 3024 3026 3029 3032 3035 3037 3040 3042 3044 3047 3050 3052 3054 3056 3059 3060 3062 3062 3064 3066 3068 3069
2847 2850 2853 2855 2858 2862 2864 2866 2869 2872 2875 2878 2882 2886 2890 2893 2896 2900 2902 2905 2909 2913 2916 2920 2923 2927 2929 2932 2936 2940 2943 2947 2950 2954 2958 2961 2964 2967 2971 2975 2978 2981 2985 2988 2992 2996 3000 3003 3007 3010 3013 3016 3018 3020 3022 3025 3028 3031 3033 3036 3038 3040 3043 3046 3048 3051 3053 3055 3057 3058 3059 3061 3063 3064
2844 2846 2849 2852 2854 2857 2860 2862 2865 2868 2870 2873 2876 2881 2884 2888 2892 2895 2897 2900 2904 2907 2910 2914 2917 2920 2924 2926 2930 2934 2937 2941 2944 2948 2951 2954 2957 2961 2964 2967 2970 2974 2977 2981 2985 2988 2992 2996 2999 3003 3006 3009 3011 3013 3015 3018 3021 3024 3027 3029 3032 3034 3036 3039 3042 3044 3047 3049 3051 3052 3054 3056 3058 3059
2840 2842 2845 2848 2851 2853 2856 2859 2862 2865 2866 2868 2871 2875 2879 2883 2887 2891 2893 2896 2899 2902 2905 2909 2912 2915 2918 2922 2925 2929 2932 2935 2938 2941 2945 2949 2952 2954 2957 2960 2964 2967 2970 2973 2977 2981 2985 2989 2992 2996 2999 3002 3005 3007 3008 3011 3014 3017 3020 3022 3025 3028 3030 3033 3036 3038 3041 3043 3045 3047 3049 3051 3052 3054
2837 2839 2841 2844 2847 2849 2852 2855 2859 2861 2862 2863 2866 2870 2874 2878 2882 2886 2889 2891 2894 2897 2900 2904 2907 2910 2914 2917 2920 2923 2926 2929 2932 2935 2939 2943 2946 2949 2951 2954 2958 2961 2963 2966 2970 2973 2977 2981 2984 2988 2991 2994 2997 2999 3002 3004 3007 3010 3012 3014 3018 3021 3024 3027 3029 3032 3035 3037 3039 3041 3043 3045 3047 3049
2833 2835 2838 2841 2843 2846 2848 2851 2855 2857 2857 2858 2861 2865 2869 2873 2877 2881 2884 2887 2890 2892 2895 2898 2902 2905 2909 2912 2915 2917 2920 2923 2926 2930 2933 2937 2940 2943 2946 2948 2951 2954 2957 2960 2963 2966 2970 2973 2976 2979 2982 2985 2988 2991 2994 2997 2999 3003 3006 3008 3011 3014 3017 3020 3022 3025 3028 3031 3033 3035 3037 3039 3041 3043
2829 2832 2835 2837 2840 2842 2844 2847 2850 2852 2853 2855 2857 2860 2863 2867 2872 2876 2879 2882 2885 2887 2889 2893 2896 2900 2903 2906 2909 2912 2915 2918 2921 2924 2927 2931 2934 2938 2941 2944 2946 2948 2951 2954 2957 2960 2962 2965 2969 2972 2975 2977 2980 2983 2986 2989 2992 2996 2999 3001 3004 3007 3010 3013 3016 3019 3021 3024 3027 3029 3031 3032 3034 3036
2826 2828 2831 2834 2836 2838 2840 2843 2845 2848 2850 2852 2854 2856 2858 2862 2865 2869 2873 2877 2880 2882 2884 2888 2891 2894 2897 2901 2904 2907 2910 2913 2916 2919 2922 2925 2929 2932 2936 2939 2941 2943 2946 2948 2951 2953 2956 2959 2962 2965 2968 2971 2973 2976 2978 2981 2985 2989 2992 2994 2997 3000 3003 3005 3008 3011 3014 3017 3020 3022 3024 3026 3028 3030
2823 2825 2828 2830 2832 2834 2836 2838 2841 2843 2846 2848 2850 2853 2855 2857 2860 2863 2867 2871 2875 2877 2880 2883 2885 2888 2893 2896 2899 2902 2904 2907 2910 2914 2917 2921 2924 2928 2931 2933 2936 2938 2940 2942 2945 2948 2951 2954 2957 2960 2963 2965 2967 2970 2972 2975 2978 2981 2984 2987 2990 2993 2996 2999 3002 3004 3007 3010 3013 3016 3018 3021 3023 3025
2819 2822 2824 2826 2828 2830 2831 2834 2837 2839 2842 2844 2847 2849 2851 2853 2855 2859 2862 2866 2869 2872 2874 2877 2880 2883 2887 2890 2893 2896 2898 2901 2905 2910 2914 2917 2919 2922 2924 2926 2929 2931 2934 2937 2939 2942 2945 2948 2951 2954 2957 2959 2962 2964 2967 2969 2972 2975 2978 2980 2983 2986 2989 2993 2995 2998 3001 3004 3007 3010 3012 3015 3017 3019
2815 2817 2819 2822 2824 2826 2827 2830 2833 2835 2838 2840 2842 2845 2847 2849 2851 2854 2857 2860 2863 2866 2869 2871 2874 2877 2880 2884 2888 2891 2894 2897 2902 2905 2908 2910 2913 2915 2917 2920 2922 2925 2928 2931 2934 2936 2939 2941 2944 2947 2950 2953 2956 2958 2961 2963 2966 2969 2972 2974 2977 2980 2983 2986 2989 2992 2995 2998 3001 3003 3006 3008 3011 3013
2812 2813 2815 2818 2820 2822 2824 2826 2829 2831 2833 2836 2838 2840 2842 2844 2846 2849 2852 2854 2857 2861 2863 2866 2869 2871 2874 2878 2882 2886 2890 2894 2896 2898 2901 2904 2907 2909 2911 2913 2916 2920 2923 2926 2929 2931 2933 2935 2937 2940 2943 2947 2949 2952 2954 2957 2959 2962 2965 2968 2970 2974 2977 2980 2983 2986 2989 2992 2995 2997 3000 3002 3005 3007
2809 2811 2812 2814 2816 2818 2820 2822 2825 2827 2829 2832 2834 2836 2838 2840 2841 2844 2846 2849 2852 2855 2858 2861 2863 2866 2869 2873 2877 2880 2885 2888 2889 2892 2895 2897 2900 2903 2905 2908 2911 2914 2917 2920 2922 2925 2927 2929 2931 2934 2937 2940 2942 2945 2947 2950 2952 2955 2958 2961 2963 2966 2969 2972 2975 2979 2982 2985 2988 2991 2994 2996 2998 3000
2807 2809 2810 2812 2813 2815 2817 2819 2821 2823 2825 2828 2830 2832 2834 2835 2837 2839 2841 2844 2846 2849 2852 2855 2858 2861 2865 2868 2871 2874 2878 2881 2883 2886 2888 2890 2893 2897 2900 2903 2905 2908 2911 2912 2915 2918 2921 2924 2926 2928 2931 2933 2935 2938 2940 2943 2945 2948 2951 2954 2957 2959 2962 2965 2968 2972 2975 2978 2981 2984 2987 2989 2991 2993
2805 2807 2808 2809 2811 2813 2814 2816 2818 2819 2821 2823 2825 2827 2829 2830 2832 2835 2837 2839 2842 2844 2847 2849 2853 2857 2860 2862 2866 2870 2873 2875 2877 2879 2881 2884 2887 2891 2894 2897 2900 2902 2904 2906 2908 2911 2914 2918 2921 2923 2926 2928 2929 2932 2934 2936 2938 2941 2944 2947 2950 2953 2956 2958 2961 2965 2968 2971 2974 2976 2979 2982 2984 2986
2803 2804 2805 2806 2808 2810 2811 2812 2814 2816 2818 2819 2821 2823 2824 2826 2828 2830 2832 2835 2837 2840 2842 2844 2848 2852 2855 2858 2862 2866 2868 2869 2871 2874 2876 2879 2882 2885 2888 2892 2893 2895 2897 2900 2902 2905 2908 2912 2915 2918 2920 2922 2924 2926 2928 2930 2932 2934 2937 2940 2943 2946 2949 2952 2954 2957 2960 2963 2966 2968 2971 2974 2976 2978
2800 2801 2802 2803 2805 2806 2808 2809 2811 2812 2814 2815 2817 2818 2820 2822 2824 2826 2828 2831 2833 2835 2838 2840 2843 2847 2851 2854 2858 2861 2863 2865 2867 2869 2871 2874 2876 2879 2882 2884 2885 2888 2891 2894 2896 2899 2903 2906 2908 2911 2914 2916 2918 2920 2922 2923 2925 2927 2929 2932 2935 2938 2941 2944 2947 2949 2951 2954 2958 2960 2963 2965 2967 2969
2798 2799 2800 2801 2803 2804 2806 2807 2808 2810 2811 2812 2813 2814 2816 2818 2820 2822 2825 2827 2829 2831 2833 2836 2839 2843 2846 2850 2853 2856 2858 2861 2863 2864 2866 2868 2870 2872 2874 2876 2879 2882 2886 2889 2891 2894 2897 2900 2902 2905 2907 2909 2911 2913 2915 2917 2919 2921 2923 2925 2928 2931 2933 2936 2939 2941 2943 2947 2949 2952 2954 2957 2959 2961
2795 2797 2797 2798 2800 2801 2802 2804 2805 2807 2807 2808 2809 2811 2812 2814 2816 2818 2821 2824 2826 2828 2830 2833 2835 2839 2841 2844 2847 2851 2853 2856 2858 2859 2861 2863 2865 2867 2869 2872 2875 2878 2881 2883 2886 2888 2891 2894 2896 2898 2900 2903 2905 2907 2909 2911 2913 2915 2917 2919 2921 2924 2926 2929 2932 2934 2937 2939 2941 2944 2946 2948 2950 2953
2792 2793 2794 2794 2795 2796 2798 2800 2801 2803 2803 2804 2805 2807 2809 2811 2812 2815 2818 2821 2823 2825 2827 2829 2832 2834 2837 2839 2842 2846 2849 2851 2853 2855 2858 2860 2861 2863 2865 2868 2870 2872 2875 2878 2881 2883 2885 2888 2890 2892 2894 2896 2898 2901 2903 2905 2907 2909 2911 2913 2915 2917 2919 2922 2924 2927 2930 2932 2934 2936 2938 2941 2942 2944
2789 2790 2790 2791 2791 2792 2794 2795 2796 2798 2799 2800 2801 2803 2805 2807 2809 2812 2815 2818 2820 2822 2824 2826 2828 2831 2833 2836 2838 2842 2845 2847 2849 2852 2854 2856 2857 2859 2861 2863 2864 2866 2870 2874 2876 2877 2879 2882 2884 2886 2888 2890 2892 2895 2898 2899 2901 2903 2905 2907 2909 2911 2913 2915 2917 2920 2922 2925 2927 2929 2931 2933 2935 2936
2786 2787 2787 2787 2788 2788 2788 2789 2790 2792 2793 2795 2797 2799 2800 2803 2806 2810 2812 2815 2818 2820 2821 2823 2825 2828 2830 2833 2835 2838 2840 2842 2845 2848 2850 2851 2853 2855 2856 2857 2859 2861 2865 2868 2869 2871 2874 2876 2878 2881 2883 2884 2886 2889 2892 2893 2895 2897 2899 2901 2903 2905 2907 2908 2910 2913 2915 2917 2920 2922 2924 2926 2928 2929
2783 2783 2783 2783 2783 2783 2783 2783 2784 2785 2787 2789 2791 2794 2796 2800 2804 2807 2809 2812 2815 2817 2818 2821 2823 2825 2827 2829 2831 2834 2836 2838 2841 2844 2845 2847 2849 2851 2852 2853 2855 2857 2860 2862 2863 2865 2868 2870 2873 2875 2877 2878 2880 2883 2886 2887 2889 2890 2892 2894 2896 2898 2900 2902 2904 2906 2908 2910 2912 2914 2916 2919 2920 2920
2780 2780 2780 2779 2779 2778 2777 2778 2778 2780 2782 2784 2786 2788 2792 2797 2800 2803 2805 2808 2811 2813 2816 2818 2820 2822 2824 2826 2828 2830 2832 2835 2837 2840 2842 2844 2846 2847 2849 2850 2851 2853 2856 2857 2858 2860 2862 2865 2867 2869 2871 2873 2875 2877 2879 2881 2883 2884 2886 2888 2890 2891 2893 2895 2897 2899 2901 2903 2905 2907 2908 2910 2912 2913
2778 2777 2776 2775 2774 2773 2772 2772 2773 2775 2777 2779 2782 2784 2788 2792 2796 2799 2802 2805 2807 2810 2813 2815 2817 2819 2821 2823 2825 2827 2830 2832 2835 2837 2839 2841 2843 2844 2845 2846 2847 2849 2851 2853 2854 2855 2857 2859 2861 2863 2865 2867 2869 2871 2873 2875 2877 2879 2880 2882 2883 2884 2886 2888 2890 2892 2894 2896 2897 2899 2901 2903 2904 2906
2775 2774 2773 2772 2770 2769 2768 2768 2769 2770 2773 2776 2778 2781 2784 2789 2793 2796 2799 2802 2805 2807 2809 2812 2814 2817 2819 2821 2823 2826 2828 2830 2832 2834 2836 2837 2838 2840 2841 2842 2844 2845 2847 2848 2849 2851 2852 2854 2856 2858 2859 2861 2863 2865 2867 2868 2870 2872 2874 2875 2877 2878 2880 2882 2884 2885 2887 2889 2890 2892 2893 2895 2897 2899
2774 2772 2771 2769 2767 2766 2765 2764 2765 2767 2770 2773 2775 2778 2782 2786 2790 2793 2796 2800 2802 2804 2806 2809 2811 2814 2817 2819 2822 2824 2826 2827 2829 2830 2832 2833 2835 2836 2837 2839 2840 2841 2843 2844 2845 2846 2848 2849 2851 2852 2854 2855 2857 2859 2861 2862 2864 2866 2867 2868 2870 2872 2873 2875 2877 2879 2880 2882 2883 2885 2887 2888 2890 2891
2772 2771 2769 2767 2765 2764 2764 2763 2764 2765 2768 2771 2774 2777 2781 2785 2788 2791 2794 2797 2800 2802 2804 2807 2809 2812 2815 2817 2819 2821 2823 2824 2826 2827 2829 2830 2832 2833 2834 2835 2837 2838 2839 2840 2841 2842 2843 2845 2846 2847 2848 2850 2851 2853 2855 2856 2857 2859 2860 2862 2864 2865 2867 2869 2870 2871 2873 2875 2876 2878 2879 2881 2883 2884
2772 2770 2768 2766 2765 2764 2763 2764 2764 2766 2768 2770 2773 2776 2780 2784 2787 2790 2793 2796 2799 2801 2803 2806 2808 2810 2813 2814 2817 2818 2820 2822 2823 2824 2826 2827 2828 2829 2831 2832 2833 2834 2836 2837 2838 2838 2839 2840 2841 2842 2843 2844 2846 2847 2848 2849 2851 2852 2854 2855 2857 2858 2860 2862 2863 2864 2866 2867 2869 2871 2872 2874 2876 2877
2771 2770 2768 2766 2765 2764 2764 2765 2766 2767 2768 2770 2772 2776 2780 2784 2787 2790 2793 2795 2797 2800 2802 2804 2806 2808 2810 2812 2814 2816 2817 2819 2820 2821 2823 2824 2825 2826 2827 2828 2829 2830 2831 2832 2834 2834 2835 2836 2837 2838 2838 2839 2840 2841 2842 2843 2845 2846 2847 2849 2850 2851 2853 2855 2856 2857 2858 2860 2862 2863 2865 2867 2868 2870
2771 2770 2768 2767 2765 2765 2765 2766 2766 2768 2769 2771 2773 2777 2781 2785 2787 2790 2792 2794 2796 2798 2800 2802 2804 2806 2808 2810 2811 2813 2814 2816 2817 2818 2819 2820 2822 2823 2823 2824 2825 2826 2827 2828 2829 2830 2831 2832 2833 2833 2834 2834 2835 2836 2837 2838 2839 2841 2841 2842 2844 2845 2846 2848 2848 2849 2851 2853 2855 2856 2858 2860 2861 2862
2771 2770 2769 2768 2766 2766 2766 2767 2768 2769 2770 2772 2775 2778 2782 2785 2787 2789 2791 2793 2795 2797 2799 2801 2802 2804 2806 2807 2809 2810 2811 2813 2814 2815 2816 2817 2818 2819 2819 2820 2821 2822 2823 2824 2825 2826 2826 2827 2828 2829 2829 2830 2830 2830 2831 2832 2834 2835 2836 2837 2838 2839 2840 2841 2841 2843 2845 2846 2848 2849 2851 2853 2854 2855
2771 2771 2770 2769 2768 2767 2768 2768 2769 2770 2772 2774 2777 2780 2782 2784 2786 2788 2790 2792 2794 2795 2797 2799 2800 2802 2803 2805 2806 2807 2808 2809 2810 2811 2812 2813 2814 2815 2815 2816 2817 2818 2819 2819 2820 2821 2821 2822 2823 2824 2824 2825 2825 2825 2826 2827 2828 2829 2830 2831 2832 2833 2834 2834 2834 2836 2838 2839 2841 2842 2844 2845 2846 2846
2771 2770 2770 2770 2769 2769 2769 2770 2771 2772 2774 2776 2778 2780 2782 2784 2785 2787 2789 2791 2792 2794 2795 2797 2798 2799 2801 2802 2803 2804 2805 2806 2807 2807 2808 2809 2810 2810 2811 2812 2812 2813 2814 2814 2815 2816 2816 2817 2818 2818 2819 2819 2819 2820 2822 2823 2823 2823 2824 2825 2826 2827 2827 2827 2828 2829 2831 2832 2834 2835 2836 2838 2839 2838
2770 2770 2770 2770 2770 2770 2771 2771 2772 2774 2775 2777 2778 2780 2781 2783 2784 2786 2788 2789 2791 2792 2793 2794 2796 2797 2798 2799 2800 2800 2801 2802 2803 2803 2804 2804 2805 2805 2806 2806 2807 2808 2808 2809 2810 2810 2811 2812 2812 2813 2814 2814 2814 2815 2817 2818 2818 2818 2819 2820 2820 2821 2821 2821 2822 2823 2825 2825 2827 2828 2829 2831 2832 2831
2770 2770 2770 2771 2771 2771 2772 2773 2773 2774 2775 2776 2778 2779 2780 2782 2783 2785 2786 2788 2789 2790 2791 2792 2793 2794 2795 2796 2796 2797 2797 2798 2798 2798 2799 2799 2799 2800 2800 2801 2802 2802 2803 2804 2805 2805 2806 2806 2807 2808 2808 2809 2809 2810 2812 2812 2812 2812 2813 2814 2814 2814 2815 2815 2816 2818 2818 2819 2820 2821 2822 2824 2825 2825
2771 2771 2771 2771 2771 2771 2772 2773 2774 2774 2775 2776 2777 2779 2780 2781 2782 2784 2785 2786 2787 2788 2789 2790 2791 2791 2792 2792 2792 2793 2793 2793 2793 2793 2793 2794 2794 2795 2795 2796 2797 2797 2798 2799 2799 2800 2800 2801 2802 2803 2804 2804 2804 2805 2805 2805 2805 2806 2807 2807 2808 2809 2809 2810 2811 2812 2812 2813 2814 2815 2816 2817 2819 2819
2772 2771 2771 2771 2771 2771 2772 2772 2773 2774 2775 2776 2777 2778 2779 2780 2781 2782 2783 2784 2785 2785 2786 2786 2787 2787 2787 2787 2788 2788 2788 2788 2788 2788 2789 2789 2789 2790 2790 2791 2792 2792 2793 2794 2794 2795 2796 2797 2798 2798 2798 2798 2798 2799 2799 2799 2800 2802 2803 2803 2804 2804 2805 2805 2806 2806 2807 2808 2808 2809 2810 2811 2812 2813
2772 2772 2771 2771 2771 2771 2771 2772 2772 2773 2774 2775 2775 2776 2777 2778 2779 2779 2780 2780 2781 2782 2782 2782 2783 2783 2783 2783 2783 2783 2784 2784 2784 2784 2784 2785 2785 2786 2786 2787 2787 2788 2789 2790 2791 2792 2793 2793 2793 2792 2792 2792 2792 2793 2794 2796 2797 2798 2799 2799 2799 2799 2800 2800 2801 2801 2802 2802 2803 2803 2805 2806 2806 2807
2773 2773 2772 2772 2771 2771 2771 2771 2772 2772 2772 2773 2773 2774 2774 2775 2776 2776 2777 2777 2778 2778 2779 2779 2779 2780 2780 2780 2780 2780 2780 2781 2781 2781 2781 2781 2782 2782 2783 2783 2784 2785 2785 2786 2787 2788 2788 2787 2787 2787 2787 2788 2789 2790 2791 2793 2794 2794 2794 2794 2794 2794 2795 2795 2796 2796 2797 2797 2798 2799 2800 2801 2800 2800
2774 2773 2772 2772 2772 2771 2771 2771 2771 2772 2772 2772 2772 2772 2773 2773 2774 2774 2775 2775 2776 2776 2776 2776 2777 2777 2777 2777 2777 2778 2778 2778 2778 2778 2778 2778 2779 2779 2780 2780 2781 2781 2782 2782 2783 2783 2783 2783 2783 2783 2784 2785 2785 2786 2788 2789 2790 2790 2790 2789 2789 2789 2790 2791 2791 2791 2792 2792 2793 2794 2795 2795 2793 2794
2774 2773 2772 2772 2771 2771 2771 2771 2771 2771 2771 2772 2772 2772 2772 2772 2773 2773 2773 2774 2774 2774 2774 2775 2775 2775 2775 2775 2775 2775 2776 2776 2776 2776 2776 2776 2776 2777 2777 2778 2778 2778 2779 2779 2779 2780 2780 2780 2780 2780 2780 2781 2782 2783 2784 2785 2785 2785 2785 2785 2785 2786 2786 2786 2786 2786 2787 2787 2788 2789 2789 2788 2787 2787
2773 2772 2771 2771 2771 2770 2770 2770 2770 2771 2771 2771 2771 2771 2771 2771 2771 2772 2772 2772 2772 2773 2773 2773 2773 2773 2773 2774 2774 2774 2774 2774 2774 2774 2774 2774 2775 2775 2775 2775 2775 2776 2776 2776 2777 2777 2777 2777 2777 2777 2777 2778 2778 2779 2780 2780 2780 2781 2781 2781 2782 2782 2782 2782 2781 2781 2781 2782 2783 2783 2781 2780 2780 2780